Time,TemperatureF,DewpointF,PressureIn,WindDirection,WindDirectionDegrees,WindSpeedMPH,WindSpeedGustMPH,Humidity,HourlyPrecipIn,Conditions,Clouds,dailyrainin,SolarRadiationWatts/m^2,SoftwareType,DateUTC
2013-08-27 00:12:00,59.0,46.0,-100.00,SSE,166,0.0,4.0,63,0.00,,,0.00,0.000000,,2013-08-27 06:12:00,
2013-08-27 00:21:00,59.0,46.0,-100.00,SSE,166,0.0,4.0,63,0.00,,,0.00,0.000000,,2013-08-27 06:21:00,
2013-08-27 00:32:00,59.0,46.0,-100.00,SSE,166,0.0,4.0,63,0.00,,,0.00,0.000000,,2013-08-27 06:32:00,
2013-08-27 01:12:00,57.0,46.0,-100.00,North,4,0.0,4.0,66,0.00,,,0.00,0.000000,,2013-08-27 07:12:00,
2013-08-27 01:21:00,57.0,46.0,-100.00,North,4,0.0,4.0,66,0.00,,,0.00,0.000000,,2013-08-27 07:21:00,
2013-08-27 01:32:00,57.0,46.0,-100.00,North,4,0.0,4.0,66,0.00,,,0.00,0.000000,,2013-08-27 07:32:00,
2013-08-27 02:11:00,55.0,45.0,-100.00,NNW,340,2.0,4.0,70,0.00,,,0.00,0.000000,,2013-08-27 08:11:00,
2013-08-27 02:22:00,55.0,45.0,-100.00,NNW,340,2.0,4.0,70,0.00,,,0.00,0.000000,,2013-08-27 08:22:00,
2013-08-27 02:33:00,55.0,45.0,-100.00,NNW,340,2.0,4.0,70,0.00,,,0.00,0.000000,,2013-08-27 08:33:00,
2013-08-27 03:11:00,55.0,46.0,-100.00,East,99,1.0,4.0,71,0.00,,,0.00,0.000000,,2013-08-27 09:11:00,
2013-08-27 03:21:00,55.0,46.0,-100.00,East,99,1.0,4.0,71,0.00,,,0.00,0.000000,,2013-08-27 09:21:00,
2013-08-27 03:35:00,55.0,46.0,-100.00,East,99,1.0,4.0,71,0.00,,,0.00,0.000000,,2013-08-27 09:35:00,
2013-08-27 04:14:00,51.0,44.0,-100.00,SE,142,0.0,3.0,76,0.00,,,0.00,0.000000,,2013-08-27 10:14:00,
2013-08-27 04:25:00,51.0,44.0,-100.00,SE,142,0.0,3.0,76,0.00,,,0.00,0.000000,,2013-08-27 10:25:00,
2013-08-27 04:33:00,51.0,44.0,-100.00,SE,142,0.0,3.0,76,0.00,,,0.00,0.000000,,2013-08-27 10:33:00,
2013-08-27 05:12:00,49.0,43.0,-100.00,WNW,297,0.0,2.0,80,0.00,,,0.00,0.000000,,2013-08-27 11:12:00,
2013-08-27 05:22:00,49.0,43.0,-100.00,WNW,297,0.0,2.0,80,0.00,,,0.00,0.000000,,2013-08-27 11:22:00,
2013-08-27 05:33:00,49.0,43.0,-100.00,WNW,297,0.0,2.0,80,0.00,,,0.00,0.000000,,2013-08-27 11:33:00,
2013-08-27 06:12:00,47.0,42.0,-100.00,South,177,0.0,1.0,82,0.00,,,0.00,0.000000,,2013-08-27 12:12:00,
2013-08-27 06:21:00,47.0,42.0,-100.00,South,177,0.0,1.0,82,0.00,,,0.00,0.000000,,2013-08-27 12:21:00,
2013-08-27 06:32:00,47.0,42.0,-100.00,South,177,0.0,1.0,82,0.00,,,0.00,0.000000,,2013-08-27 12:32:00,
2013-08-27 07:11:00,45.0,41.0,-100.00,South,189,0.0,2.0,85,0.00,,,0.00,0.000000,,2013-08-27 13:11:00,
2013-08-27 07:22:00,45.0,41.0,-100.00,South,189,0.0,2.0,85,0.00,,,0.00,0.000000,,2013-08-27 13:22:00,
2013-08-27 07:31:00,45.0,41.0,-100.00,South,189,0.0,2.0,85,0.00,,,0.00,0.000000,,2013-08-27 13:31:00,
2013-08-27 08:11:00,47.0,42.0,-100.00,WSW,247,0.0,2.0,83,0.00,,,0.00,28.000000,,2013-08-27 14:11:00,
2013-08-27 08:22:00,47.0,42.0,-100.00,WSW,247,0.0,2.0,83,0.00,,,0.00,28.000000,,2013-08-27 14:22:00,
2013-08-27 08:32:00,47.0,42.0,-100.00,WSW,247,0.0,2.0,83,0.00,,,0.00,28.000000,,2013-08-27 14:32:00,
2013-08-27 09:11:00,55.0,47.0,-100.00,WNW,294,0.0,3.0,75,0.00,,,0.00,118.000000,,2013-08-27 15:11:00,
2013-08-27 09:22:00,55.0,47.0,-100.00,WNW,294,0.0,3.0,75,0.00,,,0.00,118.000000,,2013-08-27 15:22:00,
2013-08-27 09:35:00,55.0,47.0,-100.00,WNW,294,0.0,3.0,75,0.00,,,0.00,118.000000,,2013-08-27 15:35:00,
2013-08-27 10:17:00,58.0,48.0,-100.00,South,180,1.0,3.0,69,0.00,,,-99.99,176.000000,,2013-08-27 16:17:00,
2013-08-27 10:28:00,58.0,48.0,-100.00,South,180,1.0,3.0,69,0.00,,,-99.99,176.000000,,2013-08-27 16:28:00,
2013-08-27 10:35:00,58.0,48.0,-100.00,South,180,1.0,3.0,69,0.00,,,-99.99,176.000000,,2013-08-27 16:35:00,
2013-08-27 11:13:00,66.0,48.0,-100.00,SSW,209,2.0,3.0,53,0.00,,,0.00,519.000000,,2013-08-27 17:13:00,
2013-08-27 11:23:00,66.0,48.0,-100.00,SSW,209,2.0,3.0,53,0.00,,,0.00,519.000000,,2013-08-27 17:23:00,
2013-08-27 11:35:00,66.0,48.0,-100.00,SSW,209,2.0,3.0,53,0.00,,,0.00,519.000000,,2013-08-27 17:35:00,
2013-08-27 13:11:00,74.0,45.0,-100.00,WSW,255,3.0,7.0,35,-99.99,,,0.00,428.000000,,2013-08-27 19:11:00,
2013-08-27 13:22:00,74.0,45.0,-100.00,WSW,255,3.0,7.0,35,-99.99,,,0.00,428.000000,,2013-08-27 19:22:00,
2013-08-27 13:32:00,74.0,45.0,-100.00,WSW,255,3.0,7.0,35,-99.99,,,0.00,428.000000,,2013-08-27 19:32:00,
2013-08-27 14:11:00,75.0,44.0,-100.00,SSE,166,2.0,7.0,33,0.00,,,0.00,467.000000,,2013-08-27 20:11:00,